TimeEST,TemperatureF,Dew PointF,Humidity,Sea Level PressureIn,VisibilityMPH,Wind Direction,Wind SpeedMPH,Gust SpeedMPH,PrecipitationIn,Events,Conditions,WindDirDegrees,DateUTC
12:35 AM,24.8,21.2,86,30.36,10.0,Calm,Calm,-,N/A,,Clear,0,2011-11-22 05:35:00
12:55 AM,23.0,21.2,93,30.35,10.0,Calm,Calm,-,N/A,,Clear,0,2011-11-22 05:55:00
1:15 AM,23.0,21.2,93,30.36,7.0,Calm,Calm,-,N/A,,Clear,0,2011-11-22 06:15:00
1:55 AM,23.0,19.4,86,30.36,10.0,Calm,Calm,-,N/A,,Clear,0,2011-11-22 06:55:00
2:15 AM,23.0,19.4,86,30.36,10.0,Calm,Calm,-,N/A,,Clear,0,2011-11-22 07:15:00
2:35 AM,21.2,21.2,100,30.36,10.0,Calm,Calm,-,N/A,,Clear,0,2011-11-22 07:35:00
2:55 AM,21.2,19.4,93,30.37,10.0,Calm,Calm,-,N/A,,Clear,0,2011-11-22 07:55:00
3:15 AM,21.2,19.4,93,30.37,10.0,Calm,Calm,-,N/A,,Scattered Clouds,0,2011-11-22 08:15:00
3:35 AM,21.2,19.4,93,30.36,10.0,Calm,Calm,-,N/A,,Overcast,0,2011-11-22 08:35:00
4:15 AM,24.8,19.4,80,30.38,10.0,Calm,Calm,-,N/A,,Overcast,0,2011-11-22 09:15:00
4:35 AM,24.8,21.2,86,30.38,10.0,Calm,Calm,-,N/A,,Overcast,0,2011-11-22 09:35:00
4:55 AM,24.8,21.2,86,30.38,10.0,Calm,Calm,-,N/A,,Overcast,0,2011-11-22 09:55:00
5:15 AM,24.8,21.2,86,30.38,10.0,Calm,Calm,-,N/A,,Overcast,0,2011-11-22 10:15:00
5:35 AM,24.8,23.0,93,30.38,10.0,Calm,Calm,-,N/A,,Overcast,0,2011-11-22 10:35:00
5:55 AM,24.8,21.2,86,30.39,10.0,Calm,Calm,-,N/A,,Overcast,0,2011-11-22 10:55:00
6:15 AM,24.8,24.8,100,30.39,10.0,Calm,Calm,-,N/A,,Overcast,0,2011-11-22 11:15:00
6:55 AM,26.6,23.0,86,30.38,10.0,Calm,Calm,-,N/A,,Overcast,0,2011-11-22 11:55:00
7:15 AM,26.6,23.0,86,30.38,10.0,Calm,Calm,-,N/A,,Overcast,0,2011-11-22 12:15:00
7:35 AM,26.6,23.0,86,30.38,10.0,Calm,Calm,-,N/A,,Overcast,0,2011-11-22 12:35:00
7:55 AM,26.6,24.8,93,30.38,10.0,Calm,Calm,-,N/A,,Overcast,0,2011-11-22 12:55:00
8:15 AM,28.4,23.0,80,30.40,10.0,Calm,Calm,-,N/A,,Overcast,0,2011-11-22 13:15:00
8:35 AM,28.4,24.8,86,30.40,9.0,North,5.8,-,N/A,,Overcast,360,2011-11-22 13:35:00
9:15 AM,28.4,23.0,80,30.41,10.0,Calm,Calm,-,N/A,,Overcast,0,2011-11-22 14:15:00
9:35 AM,30.2,24.8,80,30.41,10.0,Calm,Calm,-,N/A,,Overcast,0,2011-11-22 14:35:00
9:55 AM,30.2,26.6,86,30.41,10.0,Calm,Calm,-,N/A,,Overcast,0,2011-11-22 14:55:00
10:15 AM,32.0,26.6,80,30.41,10.0,Calm,Calm,-,N/A,,Overcast,0,2011-11-22 15:15:00
10:35 AM,32.0,26.6,80,30.41,10.0,Calm,Calm,-,N/A,,Overcast,0,2011-11-22 15:35:00
10:55 AM,33.8,28.4,81,30.39,10.0,Calm,Calm,-,N/A,,Overcast,0,2011-11-22 15:55:00
11:15 AM,33.8,28.4,81,30.38,10.0,Calm,Calm,-,N/A,,Overcast,0,2011-11-22 16:15:00
11:35 AM,35.6,30.2,81,30.38,10.0,Calm,Calm,-,N/A,,Overcast,0,2011-11-22 16:35:00
11:55 AM,35.6,30.2,81,30.37,10.0,Calm,Calm,-,N/A,,Scattered Clouds,0,2011-11-22 16:55:00
12:35 PM,37.4,30.2,75,30.35,10.0,Calm,Calm,-,N/A,,Clear,0,2011-11-22 17:35:00
2:35 PM,41.0,28.4,61,30.32,10.0,Calm,Calm,-,N/A,,Clear,0,2011-11-22 19:35:00
2:55 PM,41.0,28.4,61,30.32,10.0,Calm,Calm,-,N/A,,Clear,0,2011-11-22 19:55:00
3:15 PM,41.0,28.4,61,30.31,10.0,Calm,Calm,-,N/A,,Clear,0,2011-11-22 20:15:00
3:35 PM,39.2,30.2,70,30.31,10.0,Calm,Calm,-,N/A,,Clear,0,2011-11-22 20:35:00
3:55 PM,37.4,30.2,75,30.30,10.0,Calm,Calm,-,N/A,,Clear,0,2011-11-22 20:55:00
4:35 PM,35.6,30.2,81,30.32,10.0,Calm,Calm,-,N/A,,Clear,0,2011-11-22 21:35:00
4:55 PM,35.6,30.2,81,30.32,10.0,Calm,Calm,-,N/A,,Clear,0,2011-11-22 21:55:00
5:15 PM,35.6,28.4,75,30.31,10.0,Calm,Calm,-,N/A,,Clear,0,2011-11-22 22:15:00
5:35 PM,35.6,30.2,81,30.31,10.0,Calm,Calm,-,N/A,,Clear,0,2011-11-22 22:35:00
5:55 PM,35.6,28.4,75,30.31,10.0,Calm,Calm,-,N/A,,Scattered Clouds,0,2011-11-22 22:55:00
6:55 PM,35.6,30.2,81,30.29,10.0,Calm,Calm,-,N/A,,Overcast,0,2011-11-22 23:55:00
7:15 PM,35.6,30.2,81,30.28,10.0,Calm,Calm,-,N/A,,Overcast,0,2011-11-23 00:15:00
7:35 PM,35.6,32.0,87,30.28,10.0,Calm,Calm,-,N/A,,Overcast,0,2011-11-23 00:35:00
7:55 PM,35.6,30.2,81,30.28,10.0,Calm,Calm,-,N/A,,Overcast,0,2011-11-23 00:55:00
8:15 PM,35.6,30.2,81,30.28,10.0,NE,3.5,-,N/A,,Overcast,40,2011-11-23 01:15:00
8:35 PM,35.6,30.2,81,30.27,10.0,Calm,Calm,-,N/A,,Overcast,0,2011-11-23 01:35:00
9:15 PM,35.6,32.0,87,30.25,6.0,Calm,Calm,-,N/A,,Overcast,0,2011-11-23 02:15:00
9:35 PM,35.6,32.0,87,30.24,7.0,Calm,Calm,-,N/A,,Overcast,0,2011-11-23 02:35:00
10:15 PM,35.6,32.0,87,30.22,8.0,Calm,Calm,-,N/A,,Overcast,0,2011-11-23 03:15:00
10:35 PM,35.6,32.0,87,30.21,4.0,Calm,Calm,-,N/A,,Overcast,0,2011-11-23 03:35:00
10:55 PM,35.6,33.8,93,30.20,4.0,Calm,Calm,-,0.03,,Overcast,0,2011-11-23 03:55:00
11:15 PM,35.6,33.8,93,30.20,3.0,Calm,Calm,-,0.03,,Overcast,0,2011-11-23 04:15:00
11:35 PM,35.6,33.8,93,30.19,3.0,North,3.5,-,0.08,,Overcast,360,2011-11-23 04:35:00
11:55 PM,35.6,32.0,87,30.18,4.0,Calm,Calm,-,0.12,,Overcast,0,2011-11-23 04:55:00